| time (UTC) | temp F | wind direction | speed MPH | gust MPH | rain 1hr in | rain 24hr in | rain mn in | humidity % | barometer mb |
| 20260509180842 | 75 | 182 | 2.0 | 5.0 | 0.00 | 0.00 | 0.00 | 51 | 1009.6 |
| 20260509170849 | 75 | 183 | 3.0 | 11.0 | 0.00 | 0.00 | 0.00 | 51 | 1009.9 |
| 20260509160922 | 74 | 236 | 4.0 | 14.0 | 0.00 | 0.01 | 0.00 | 53 | 1010.6 |
| 20260509150902 | 71 | 170 | 12.0 | 12.0 | 0.00 | 0.01 | 0.00 | 56 | 1011.3 |
| 20260509140845 | 67 | 173 | 6.0 | 6.0 | 0.00 | 0.01 | 0.00 | 66 | 1012.0 |
| 20260509130857 | 64 | 222 | 4.0 | 9.0 | 0.00 | 0.01 | 0.00 | 71 | 1012.4 |
| 20260509120925 | 58 | 173 | 5.0 | 5.0 | 0.00 | 0.01 | 0.00 | 81 | 1012.6 |
| 20260509110852 | 54 | 165 | 1.0 | 3.0 | 0.00 | 0.01 | 0.00 | 85 | 1012.3 |
| 20260509100858 | 53 | 174 | 2.0 | 4.0 | 0.00 | 0.01 | 0.00 | 84 | 1012.1 |
| 20260509090853 | 54 | 168 | 4.0 | 6.0 | 0.00 | 0.01 | 0.00 | 79 | 1012.3 |
| 20260509080853 | 52 | 178 | 1.0 | 2.0 | 0.00 | 0.01 | 0.00 | 80 | 1012.0 |
| 20260509070904 | 55 | 185 | 5.0 | 5.0 | 0.00 | 0.01 | 0.00 | 73 | 1012.6 |
| 20260509060846 | 55 | 177 | 3.0 | 4.0 | 0.00 | 0.01 | 0.00 | 69 | 1013.6 |
| 20260509050851 | 56 | 172 | 4.0 | 4.0 | 0.00 | 0.01 | 0.00 | 65 | 1013.3 |
| 20260509040846 | 57 | 182 | 1.0 | 2.0 | 0.00 | 0.01 | 0.00 | 60 | 1013.2 |
| 20260509030843 | 59 | 186 | 2.0 | 3.0 | 0.00 | 0.01 | 0.01 | 54 | 1013.6 |
| 20260509020859 | 60 | 188 | 2.0 | 5.0 | 0.00 | 0.01 | 0.01 | 49 | 1013.7 |
| 20260509010921 | 61 | 182 | 1.0 | 4.0 | 0.00 | 0.01 | 0.01 | 47 | 1013.1 |
| 20260509000921 | 64 | 178 | 3.0 | 4.0 | 0.00 | 0.01 | 0.01 | 43 | 1013.0 |
| 20260508230858 | 67 | 176 | 6.0 | 6.0 | 0.00 | 0.01 | 0.01 | 39 | 1012.4 |
| 20260508220846 | 69 | 186 | 3.0 | 4.0 | 0.00 | 0.01 | 0.01 | 35 | 1012.6 |
| 20260508210853 | 71 | 178 | 6.0 | 13.0 | 0.00 | 0.01 | 0.01 | 32 | 1012.5 |
| 20260508200842 | 72 | 206 | 3.0 | 4.0 | 0.00 | 0.06 | 0.01 | 37 | 1013.1 |
| 20260508190848 | 71 | 321 | 2.0 | 4.0 | 0.00 | 0.06 | 0.01 | 37 | 1014.0 |